World > North America > United States > Pennsylvania > Scranton   City of Scranton, PA

Scranton, PA Hourly Weather Updates

Feedback E-mail the Weather

Quick Clicks

Scranton, PA Weather Maps

°F °C°F °C
Scranton Weather Map
UTC Time: 6/21/2024, 08:38
Your Time:

Scranton, PA Regional Weather

Expires:202406210900;;395921
ASUS41 KPHI 210810
RWRPHI

REGIONAL WEATHER ROUNDUP
NATIONAL WEATHER SERVICE MOUNT HOLLY NJ
400 AM EDT FRI JUN 21 2024

NOTE:  "FAIR" INDICATES FEW OR NO CLOUDS BELOW 12,000 FEET WITH NO
SIGNIFICANT WEATHER AND/OR OBSTRUCTIONS TO VISIBILITY.

 * = STATION DOES NOT REPORT PRECIPITATION (E.G. RAIN, SNOW, ETC.) 
        OR FOG.


PAZ043-044-047-054-055-060>062-066>071-210900-
EASTERN PENNSYLVANIA
  
CITY           SKY/WX    TMP DP  RH WIND       PRES   REMARKS
PHILADELPHIA   PTCLDY    74  67  78 SW8       30.23S                  
NORTH PHILA    CLEAR     76  66  71 SW8       30.24S                  
BLUE BELL*     CLEAR     71  67  89 CALM      30.24S                  
DOYLESTOWN     CLEAR     73  65  75 VRB5      30.23S                  
QUAKERTOWN*    CLEAR     68  66  94 CALM      30.25R                  
PERKASIE*      CLOUDY    68  68 100 CALM      30.24F                  
POTTSTOWN      CLEAR     73  63  70 SW3       30.25S                  
LANCASTER      CLEAR     68  64  87 SE3       30.24S                  
COATESVILLE    CLEAR     70  70 100 CALM      30.26S                  
WEST CHESTER   CLEAR     70  64  83 CALM      30.25S                  
READING        PTCLDY    73  62  68 S3        30.22S                  
ALLENTOWN      PTCLDY    72  63  73 SW6       30.22S                  
QN CITY/ALNTWN PTCLDY    72  64  78 CALM      30.24S                  
MOUNT POCONO   CLEAR     67  62  84 NW3       30.29S                  
HAZLETON         N/A     64  64 100 CALM      30.31S                  
LEHIGHTON      PTCLDY    64  63  94 CALM      30.25S                  
WILKES BARRE   PTCLDY    72  64  76 E5        30.24S                  

$$

SKY/WX - Weather  TMP - Temperature  DP - Dew Point  RH - Humidity
WIND - Wind Direction/Speed PRES - Barometric Pressure VSB - Visibility
WCI - Wind Chill Index E13G22 Wind - East Wind 13 mph/Gusts of 22 mph

Trending Headlines

Trending Entertainment Headlines

Scranton Radar Loop

Use the map search tool if you want to place a location marker on the radar map...

Scranton Quick Facts

National Two Day Weather Forecast


E-mail the Scranton Weather Forecast

Voice your opinion or tell us about page issues...